This is the latest recevied weather packets stored in our database for station/object HB9FHL-13. If no packets are shown the sender has not sent any weather packets the latest 10 day(s).
| Time | Temp. | Humidity | Pressure | Rain* | Wind** | Luminosity | Snow |
|---|---|---|---|---|---|---|---|
| 1777884722 | 13.89° C | - | 1015.7 hPa | 0 mm | - | - | - |
| 1777884421 | 14.44° C | - | 1014.6 hPa | 0 mm | - | - | - |
| 1777884121 | 14.44° C | - | 1015.8 hPa | 0 mm | - | - | - |
| 1777883820 | 15° C | - | 1014.4 hPa | 0 mm | - | - | - |
| 1777883520 | 15° C | - | 1017.6 hPa | 0 mm | - | - | - |
| 1777883219 | 15° C | - | 1015.5 hPa | 0 mm | - | - | - |
| 1777882919 | 15.56° C | - | 1016.7 hPa | 0 mm | - | - | - |
| 1777882618 | 15° C | - | 1010.5 hPa | 0 mm | - | - | - |
| 1777882318 | 14.44° C | - | 1015.9 hPa | 0 mm | - | - | - |
| 1777882017 | 15.56° C | - | 1017.8 hPa | 0 mm | - | - | - |
| 1777881717 | 15° C | - | 1015.6 hPa | 0 mm | - | - | - |
| 1777881416 | 15° C | - | 1017.8 hPa | 0 mm | - | - | - |
| 1777881116 | 14.44° C | - | 1018.6 hPa | 0 mm | - | - | - |
| 1777880814 | 14.44° C | - | 1018.2 hPa | 0 mm | - | - | - |
| 1777880514 | 13.89° C | - | 1015.7 hPa | 0 mm | - | - | - |
| 1777880213 | 13.89° C | - | 1012.2 hPa | 0 mm | - | - | - |
| 1777880007 | 14.44° C | - | 1018.8 hPa | 0 mm | - | - | - |
| 1777880007 | 13.89° C | - | 1016.3 hPa | 0 mm | - | - | - |
| 1777880007 | 14.44° C | - | 1017.2 hPa | 0 mm | - | - | - |
| 1777880007 | 13.33° C | - | 1016.7 hPa | 0 mm | - | - | - |
| 1777879913 | 13.33° C | - | 1016.7 hPa | 0 mm | - | - | - |
| 1777879612 | 14.44° C | - | 1017.2 hPa | 0 mm | - | - | - |
| 1777879312 | 13.89° C | - | 1016.3 hPa | 0 mm | - | - | - |
| 1777879011 | 13.89° C | - | 1017.7 hPa | 0 mm | - | - | - |
| 1777878711 | 14.44° C | - | 1018.8 hPa | 0 mm | - | - | - |
* Rain since midnight (hover to see other rain measurements)
** Current wind speed in m/s (hover to see current wind gust speed)